sat.trackr.live / text

‹ back to catalog

STARLINK-3851

NORAD 52344 · 2022-045P

PAYLOAD ACTIVE UNKNOWN

§ Identity

Operator
Country
US
Launch date
2022-04-29
Launch site
AFETR
Launch vehicle
Mass (kg)
RCS (m²)

Purposes: comms

External: N2YO · Heavens-Above · Gunter

§ Orbital elements

Epoch: 2026-09-20T01:46:40.683072Z

Period
93.85 min
Inclination
53.1607°
Eccentricity
0.0000873
Mean motion
15.34384947 rev/d
Perigee alt
462.2 km
Apogee alt
463.3 km
Semi-major
6,840.9 km
B*
-1.3682e-5
RAAN
37.6074°
Arg perigee
86.7190°
Mean anomaly
273.3912°
Rev number
24,524

§ Raw data

STARLINK-38511 52344U 22045P   26263.07408198 -.00000838  00000+0 -13682-4 0  99912 52344  53.1607  37.6074 0000873  86.7190 273.3912 15.34384947245240

JSON: /api/v1/satellites/52344 · /tle

For live sub-satellite position, see the globe view (requires WebGL).

§ Visibility from observer

Set your observer location to see the next 7 days of passes ≥ 10°. The values pass through the URL so the page stays shareable.

No JS? Fill the form by hand. The geolocation button needs JavaScript.